Powrót do katalogu

FENGYUN 1C DEB

LostPO
NORAD 31960·DEBRIS·🇨🇳 China

Wystrzelony May 10, 1999 z Taiyuan Satellite Launch Center

Loading…

Następne Przeloty (najbliższe 24 godziny)

TLE

NieaktualneSource: Space-Track

Epoka: Oct 18, 2021, 15:27 UTC

1 31960U 99025CNM 21291.64411027  .00000474  00000-0  34527-3 0  9993
2 31960  99.6903 232.9756 0148334 260.2517  98.1864 13.96575990726282

Śledź FENGYUN 1C DEB w czasie rzeczywistym z AllMySat

Download on the App Store